Location: Corralito
(14.1667°N, 87.1833°W)
Time: 21:56:14
(UTC+00:00)

Nadezhda 4 Rocket - Pass Details

Date: 06 October 2020
Orbit: 949 x 992 km, 82.9° (Epoch: 26 October)

Event Time Altitude Azimuth Distance (km) Brightness Sun altitude
Rises 00:00:57 0° 357° (N) 3,629 7.0 -7.1°
Reaches altitude 10° 00:03:26 10° 358° (N) 2,688 6.3 -7.7°
Maximum altitude 00:09:36 84° 87° (E) 976 4.0 -9.2°
Drops below altitude 10° 00:15:50 10° 175° (S) 2,716 6.3 -10.7°
Sets 00:18:21 0° 175° (S) 3,669 7.0 -11.3°
